Página principal
METAR-TAF:

METAR-TAF

Aeroportos :

Ann Arbor, Michigan, Estados Unidos

latitude: 42-13-26N, longitude: 083-44-24W, altura: 255 m

Observação actual do tempo

O boletim foi feito há 1 hora e 10 minutos, às 21:53 UTC
Vento 9 kt de oes-noroeste
Temperatura 10°C
Humidade 50%
Pressão 1022 hPa
Visibilidade: 16.1 km
Céu limpo

METAR: KARB 232153Z 29009KT 10SM CLR 10/00 A3019 RMK AO2 SLP228 T01000000

Hora: 19:03 (23:03 UTC)


TAF: em falta

Observações e previsões do tempo de mais de 4000 aeroportos (mensagens METAR e TAF).

As estações disponíveis são os pontos amarelos e vermelhos sobre o mapa.

Mova o rato sobre o mapa para ver o nome da estação.

Depois clique no ponto para visualizar as observações e previsões meteorológicas.

Para alterar o mapa : clique nos botões verdes com uma cruz preta para aumentar o zoom; no botão verde com uma pitada de zoom; ou nas setas verdes para mapas adjacentes.


METAR-TAF: